Time,TemperatureF,DewpointF,PressureIn,WindDirection,WindDirectionDegrees,WindSpeedMPH,WindSpeedGustMPH,Humidity,HourlyPrecipIn,Conditions,Clouds,dailyrainin,SoftwareType,DateUTC
2013-05-14 00:12:00,41.0,33.8,30.49,WNW,289,0.0,-999.9,76,-99.99,,,-99.99,,2013-05-14 04:12:00,
2013-05-14 00:14:00,41.0,33.8,30.49,WNW,289,0.0,-999.9,76,-99.99,,,-99.99,,2013-05-14 04:14:00,
2013-05-14 00:18:00,41.0,33.8,30.49,WNW,289,0.0,-999.9,76,-99.99,,,-99.99,,2013-05-14 04:18:00,
2013-05-14 00:22:00,41.0,33.8,30.49,North,0,0.0,-999.9,76,-99.99,,,-99.99,,2013-05-14 04:22:00,
2013-05-14 00:28:00,41.0,33.8,30.49,North,0,0.0,-999.9,76,-99.99,,,-99.99,,2013-05-14 04:28:00,
2013-05-14 00:30:00,41.0,33.8,30.49,North,0,0.0,-999.9,76,-99.99,,,-99.99,,2013-05-14 04:30:00,
2013-05-14 00:36:00,41.0,33.8,30.49,North,0,0.0,-999.9,76,-99.99,,,-99.99,,2013-05-14 04:36:00,
2013-05-14 00:42:00,41.0,33.8,30.49,North,0,0.0,-999.9,76,-99.99,,,-99.99,,2013-05-14 04:42:00,
2013-05-14 00:48:00,41.0,33.8,30.49,North,0,0.0,-999.9,76,-99.99,,,-99.99,,2013-05-14 04:48:00,
2013-05-14 00:54:00,41.0,35.6,30.49,North,0,0.0,-999.9,81,-99.99,,,-99.99,,2013-05-14 04:54:00,
2013-05-14 01:00:00,41.0,35.6,30.49,North,0,0.0,-999.9,81,-99.99,,,-99.99,,2013-05-14 05:00:00,
2013-05-14 01:32:00,41.0,35.6,30.49,North,0,0.0,-999.9,81,-99.99,,,-99.99,,2013-05-14 05:32:00,
2013-05-14 01:38:00,41.0,35.6,30.49,North,0,0.0,-999.9,81,-99.99,,,-99.99,,2013-05-14 05:38:00,
2013-05-14 01:52:00,41.0,35.6,30.48,North,0,0.0,-999.9,81,-99.99,,,-99.99,,2013-05-14 05:52:00,
2013-05-14 01:58:00,41.0,35.6,30.48,North,0,0.0,-999.9,81,-99.99,,,-99.99,,2013-05-14 05:58:00,
2013-05-14 02:12:00,39.2,33.8,30.49,North,0,0.0,-999.9,81,-99.99,,,-99.99,,2013-05-14 06:12:00,
2013-05-14 02:18:00,39.2,33.8,30.49,North,0,0.0,-999.9,81,-99.99,,,-99.99,,2013-05-14 06:18:00,
2013-05-14 02:24:00,39.2,33.8,30.48,North,0,0.0,-999.9,81,-99.99,,,-99.99,,2013-05-14 06:24:00,
2013-05-14 02:30:00,39.2,33.8,30.48,North,0,0.0,-999.9,81,-99.99,,,-99.99,,2013-05-14 06:30:00,
2013-05-14 02:36:00,39.2,33.8,30.48,North,0,0.0,-999.9,81,-99.99,,,-99.99,,2013-05-14 06:36:00,
2013-05-14 02:42:00,39.2,35.6,30.49,North,0,0.0,-999.9,87,-99.99,,,-99.99,,2013-05-14 06:42:00,
2013-05-14 02:48:00,39.2,35.6,30.49,North,0,0.0,-999.9,87,-99.99,,,-99.99,,2013-05-14 06:48:00,
2013-05-14 02:54:00,37.4,33.8,30.49,North,0,0.0,-999.9,87,-99.99,,,-99.99,,2013-05-14 06:54:00,
2013-05-14 03:00:00,37.4,33.8,30.49,North,0,0.0,-999.9,87,-99.99,,,-99.99,,2013-05-14 07:00:00,
2013-05-14 03:12:00,39.2,33.8,30.49,NE,55,1.2,-999.9,81,-99.99,,,-99.99,,2013-05-14 07:12:00,
2013-05-14 03:18:00,39.2,33.8,30.49,NE,55,1.2,-999.9,81,-99.99,,,-99.99,,2013-05-14 07:18:00,
2013-05-14 03:24:00,39.2,33.8,30.49,North,0,0.0,-999.9,81,-99.99,,,-99.99,,2013-05-14 07:24:00,
2013-05-14 03:30:00,39.2,33.8,30.49,North,0,0.0,-999.9,81,-99.99,,,-99.99,,2013-05-14 07:30:00,
2013-05-14 03:36:00,39.2,35.6,30.49,North,0,0.0,-999.9,87,-99.99,,,-99.99,,2013-05-14 07:36:00,
2013-05-14 03:42:00,39.2,35.6,30.49,North,0,0.0,-999.9,87,-99.99,,,-99.99,,2013-05-14 07:42:00,
2013-05-14 03:48:00,39.2,35.6,30.49,North,0,0.0,-999.9,87,-99.99,,,-99.99,,2013-05-14 07:48:00,
2013-05-14 03:54:00,39.2,35.6,30.49,North,0,0.0,-999.9,87,-99.99,,,-99.99,,2013-05-14 07:54:00,
2013-05-14 04:00:00,39.2,35.6,30.49,North,0,0.0,-999.9,87,-99.99,,,-99.99,,2013-05-14 08:00:00,
2013-05-14 04:12:00,37.4,33.8,30.49,North,0,0.0,-999.9,87,-99.99,,,-99.99,,2013-05-14 08:12:00,
2013-05-14 04:18:00,37.4,33.8,30.49,North,0,0.0,-999.9,87,-99.99,,,-99.99,,2013-05-14 08:18:00,
2013-05-14 04:32:00,39.2,33.8,30.49,North,0,0.0,-999.9,81,-99.99,,,-99.99,,2013-05-14 08:32:00,
2013-05-14 04:38:00,39.2,33.8,30.49,North,0,0.0,-999.9,81,-99.99,,,-99.99,,2013-05-14 08:38:00,
2013-05-14 04:44:00,39.2,33.8,30.49,North,0,0.0,-999.9,81,-99.99,,,-99.99,,2013-05-14 08:44:00,
2013-05-14 04:50:00,39.2,33.8,30.49,North,0,0.0,-999.9,81,-99.99,,,-99.99,,2013-05-14 08:50:00,
2013-05-14 04:56:00,39.2,33.8,30.49,North,0,0.0,-999.9,81,-99.99,,,-99.99,,2013-05-14 08:56:00,
2013-05-14 05:12:00,39.2,32.0,30.49,North,0,0.0,-999.9,75,-99.99,,,-99.99,,2013-05-14 09:12:00,
2013-05-14 05:18:00,39.2,32.0,30.49,North,0,0.0,-999.9,75,-99.99,,,-99.99,,2013-05-14 09:18:00,
2013-05-14 05:24:00,39.2,33.8,30.48,North,0,0.0,-999.9,81,-99.99,,,-99.99,,2013-05-14 09:24:00,
2013-05-14 05:30:00,39.2,33.8,30.48,North,0,0.0,-999.9,81,-99.99,,,-99.99,,2013-05-14 09:30:00,
2013-05-14 05:36:00,37.4,32.0,30.49,North,0,0.0,-999.9,81,-99.99,,,-99.99,,2013-05-14 09:36:00,
2013-05-14 05:42:00,37.4,33.8,30.49,North,0,0.0,-999.9,87,-99.99,,,-99.99,,2013-05-14 09:42:00,
2013-05-14 05:48:00,37.4,33.8,30.49,North,0,0.0,-999.9,87,-99.99,,,-99.99,,2013-05-14 09:48:00,
2013-05-14 05:54:00,37.4,33.8,30.49,North,0,0.0,-999.9,87,-99.99,,,-99.99,,2013-05-14 09:54:00,
2013-05-14 06:00:00,37.4,33.8,30.49,North,0,0.0,-999.9,87,-99.99,,,-99.99,,2013-05-14 10:00:00,
2013-05-14 06:06:00,37.4,33.8,30.49,North,0,0.0,-999.9,87,-99.99,,,-99.99,,2013-05-14 10:06:00,
2013-05-14 06:12:00,37.4,33.8,30.49,North,0,0.0,-999.9,87,-99.99,,,-99.99,,2013-05-14 10:12:00,
2013-05-14 06:18:00,37.4,33.8,30.49,North,0,0.0,-999.9,87,-99.99,,,-99.99,,2013-05-14 10:18:00,
2013-05-14 06:24:00,37.4,33.8,30.49,North,0,0.0,-999.9,87,-99.99,,,-99.99,,2013-05-14 10:24:00,
2013-05-14 06:30:00,37.4,33.8,30.49,North,0,0.0,-999.9,87,-99.99,,,-99.99,,2013-05-14 10:30:00,
2013-05-14 06:36:00,39.2,35.6,30.50,North,0,0.0,-999.9,87,-99.99,,,-99.99,,2013-05-14 10:36:00,
2013-05-14 06:42:00,41.0,35.6,30.50,North,0,0.0,-999.9,81,-99.99,,,-99.99,,2013-05-14 10:42:00,
2013-05-14 06:48:00,41.0,35.6,30.50,North,0,0.0,-999.9,81,-99.99,,,-99.99,,2013-05-14 10:48:00,
2013-05-14 06:54:00,42.8,35.6,30.50,North,0,0.0,-999.9,76,-99.99,,,-99.99,,2013-05-14 10:54:00,
2013-05-14 07:00:00,42.8,35.6,30.50,North,0,0.0,-999.9,76,-99.99,,,-99.99,,2013-05-14 11:00:00,
2013-05-14 07:22:00,44.6,30.2,30.49,NE,53,4.6,-999.9,57,-99.99,,,-99.99,,2013-05-14 11:22:00,
2013-05-14 07:28:00,44.6,30.2,30.49,NE,53,4.6,-999.9,57,-99.99,,,-99.99,,2013-05-14 11:28:00,
2013-05-14 07:34:00,46.4,32.0,30.49,ENE,57,3.5,-999.9,57,-99.99,,,-99.99,,2013-05-14 11:34:00,
2013-05-14 07:40:00,46.4,32.0,30.49,ENE,57,3.5,-999.9,57,-99.99,,,-99.99,,2013-05-14 11:40:00,
2013-05-14 07:46:00,46.4,32.0,30.49,NE,47,3.5,-999.9,57,-99.99,,,-99.99,,2013-05-14 11:46:00,
2013-05-14 07:52:00,46.4,30.2,30.48,North,11,2.3,-999.9,53,-99.99,,,-99.99,,2013-05-14 11:52:00,
2013-05-14 07:58:00,46.4,30.2,30.48,North,11,2.3,-999.9,53,-99.99,,,-99.99,,2013-05-14 11:58:00,
2013-05-14 08:12:00,48.2,30.2,30.48,North,4,2.3,-999.9,50,-99.99,,,-99.99,,2013-05-14 12:12:00,
2013-05-14 08:18:00,48.2,30.2,30.48,North,4,2.3,-999.9,50,-99.99,,,-99.99,,2013-05-14 12:18:00,
2013-05-14 08:24:00,50.0,30.2,30.48,NNE,22,6.9,-999.9,47,-99.99,,,-99.99,,2013-05-14 12:24:00,
2013-05-14 08:30:00,50.0,30.2,30.48,NNE,22,6.9,-999.9,47,-99.99,,,-99.99,,2013-05-14 12:30:00,
2013-05-14 08:36:00,50.0,30.2,30.49,NNE,19,5.8,-999.9,47,-99.99,,,-99.99,,2013-05-14 12:36:00,
2013-05-14 08:42:00,50.0,30.2,30.48,NNE,20,2.3,-999.9,47,-99.99,,,-99.99,,2013-05-14 12:42:00,
2013-05-14 08:48:00,50.0,30.2,30.48,NNE,20,2.3,-999.9,47,-99.99,,,-99.99,,2013-05-14 12:48:00,
2013-05-14 08:54:00,51.8,28.4,30.48,NNE,21,10.4,-999.9,41,-99.99,,,-99.99,,2013-05-14 12:54:00,
2013-05-14 09:00:00,51.8,28.4,30.48,NNE,21,10.4,-999.9,41,-99.99,,,-99.99,,2013-05-14 13:00:00,
2013-05-14 09:12:00,51.8,28.4,30.48,North,7,3.5,-999.9,41,-99.99,,,-99.99,,2013-05-14 13:12:00,
2013-05-14 09:18:00,51.8,28.4,30.48,North,7,3.5,-999.9,41,-99.99,,,-99.99,,2013-05-14 13:18:00,
2013-05-14 09:24:00,51.8,28.4,30.47,NE,49,5.8,-999.9,41,-99.99,,,-99.99,,2013-05-14 13:24:00,
2013-05-14 09:30:00,51.8,28.4,30.47,NE,49,5.8,-999.9,41,-99.99,,,-99.99,,2013-05-14 13:30:00,
2013-05-14 09:36:00,51.8,26.6,30.47,NNE,24,8.1,-999.9,38,-99.99,,,-99.99,,2013-05-14 13:36:00,
2013-05-14 09:42:00,51.8,28.4,30.47,NNW,337,4.6,-999.9,41,-99.99,,,-99.99,,2013-05-14 13:42:00,
2013-05-14 09:48:00,51.8,28.4,30.47,NNW,337,4.6,-999.9,41,-99.99,,,-99.99,,2013-05-14 13:48:00,
2013-05-14 09:54:00,51.8,26.6,30.47,NNW,341,4.6,-999.9,38,-99.99,,,-99.99,,2013-05-14 13:54:00,
2013-05-14 10:00:00,51.8,26.6,30.47,NNW,341,4.6,-999.9,38,-99.99,,,-99.99,,2013-05-14 14:00:00,
2013-05-14 10:12:00,53.6,26.6,30.46,ENE,66,4.6,-999.9,35,-99.99,,,-99.99,,2013-05-14 14:12:00,
2013-05-14 10:18:00,53.6,26.6,30.46,ENE,66,4.6,-999.9,35,-99.99,,,-99.99,,2013-05-14 14:18:00,
2013-05-14 10:24:00,53.6,24.8,30.46,North,8,6.9,-999.9,33,-99.99,,,-99.99,,2013-05-14 14:24:00,
2013-05-14 10:30:00,53.6,24.8,30.46,North,8,6.9,-999.9,33,-99.99,,,-99.99,,2013-05-14 14:30:00,
2013-05-14 10:36:00,55.4,24.8,30.46,NNE,32,3.5,-999.9,31,-99.99,,,-99.99,,2013-05-14 14:36:00,
2013-05-14 10:42:00,53.6,23.0,30.46,North,8,9.2,-999.9,30,-99.99,,,-99.99,,2013-05-14 14:42:00,
2013-05-14 10:48:00,53.6,23.0,30.46,North,8,9.2,-999.9,30,-99.99,,,-99.99,,2013-05-14 14:48:00,
2013-05-14 10:54:00,53.6,26.6,30.45,NE,53,11.5,-999.9,35,-99.99,,,-99.99,,2013-05-14 14:54:00,
2013-05-14 11:00:00,53.6,26.6,30.45,NE,53,11.5,-999.9,35,-99.99,,,-99.99,,2013-05-14 15:00:00,
2013-05-14 11:12:00,55.4,26.6,30.45,North,5,3.5,-999.9,33,-99.99,,,-99.99,,2013-05-14 15:12:00,
2013-05-14 11:18:00,55.4,26.6,30.45,North,5,3.5,-999.9,33,-99.99,,,-99.99,,2013-05-14 15:18:00,
2013-05-14 11:24:00,53.6,23.0,30.45,SW,223,3.5,-999.9,30,-99.99,,,-99.99,,2013-05-14 15:24:00,
2013-05-14 11:30:00,53.6,23.0,30.45,SW,223,3.5,-999.9,30,-99.99,,,-99.99,,2013-05-14 15:30:00,
2013-05-14 11:36:00,57.2,24.8,30.45,SSE,163,6.9,-999.9,29,-99.99,,,-99.99,,2013-05-14 15:36:00,
2013-05-14 11:42:00,57.2,24.8,30.44,NE,46,6.9,-999.9,29,-99.99,,,-99.99,,2013-05-14 15:42:00,
2013-05-14 11:48:00,57.2,24.8,30.44,NE,46,6.9,-999.9,29,-99.99,,,-99.99,,2013-05-14 15:48:00,
2013-05-14 11:54:00,57.2,24.8,30.44,NNE,12,9.2,-999.9,29,-99.99,,,-99.99,,2013-05-14 15:54:00,
2013-05-14 12:00:00,57.2,24.8,30.44,NNE,12,9.2,-999.9,29,-99.99,,,-99.99,,2013-05-14 16:00:00,
2013-05-14 12:12:00,59.0,24.8,30.43,SSE,163,2.3,-999.9,27,-99.99,,,-99.99,,2013-05-14 16:12:00,
2013-05-14 12:18:00,59.0,24.8,30.43,SSE,163,2.3,-999.9,27,-99.99,,,-99.99,,2013-05-14 16:18:00,
2013-05-14 12:24:00,57.2,23.0,30.43,NNE,22,6.9,-999.9,27,-99.99,,,-99.99,,2013-05-14 16:24:00,
2013-05-14 12:30:00,57.2,23.0,30.43,NNE,22,6.9,-999.9,27,-99.99,,,-99.99,,2013-05-14 16:30:00,
2013-05-14 12:36:00,57.2,23.0,30.42,East,93,4.6,-999.9,27,-99.99,,,-99.99,,2013-05-14 16:36:00,
2013-05-14 12:42:00,59.0,24.8,30.43,East,101,1.2,-999.9,27,-99.99,,,-99.99,,2013-05-14 16:42:00,
2013-05-14 12:48:00,59.0,24.8,30.43,East,101,1.2,-999.9,27,-99.99,,,-99.99,,2013-05-14 16:48:00,
2013-05-14 12:54:00,57.2,21.2,30.42,NE,34,5.8,-999.9,25,-99.99,,,-99.99,,2013-05-14 16:54:00,
2013-05-14 13:00:00,57.2,21.2,30.42,NE,34,5.8,-999.9,25,-99.99,,,-99.99,,2013-05-14 17:00:00,
2013-05-14 13:12:00,59.0,21.2,30.42,SSE,165,5.8,-999.9,23,-99.99,,,-99.99,,2013-05-14 17:12:00,
2013-05-14 13:18:00,59.0,21.2,30.42,SSE,165,5.8,-999.9,23,-99.99,,,-99.99,,2013-05-14 17:18:00,
2013-05-14 13:24:00,60.8,23.0,30.42,East,87,6.9,-999.9,23,-99.99,,,-99.99,,2013-05-14 17:24:00,
2013-05-14 13:30:00,60.8,23.0,30.42,East,87,6.9,-999.9,23,-99.99,,,-99.99,,2013-05-14 17:30:00,
2013-05-14 13:36:00,59.0,21.2,30.42,North,3,11.5,-999.9,23,-99.99,,,-99.99,,2013-05-14 17:36:00,
2013-05-14 13:42:00,60.8,23.0,30.42,ENE,57,6.9,-999.9,23,-99.99,,,-99.99,,2013-05-14 17:42:00,
2013-05-14 13:48:00,60.8,23.0,30.42,ENE,57,6.9,-999.9,23,-99.99,,,-99.99,,2013-05-14 17:48:00,
2013-05-14 13:54:00,60.8,23.0,30.42,ENE,63,4.6,-999.9,23,-99.99,,,-99.99,,2013-05-14 17:54:00,
2013-05-14 14:00:00,60.8,23.0,30.41,NNE,29,4.6,-999.9,23,-99.99,,,-99.99,,2013-05-14 18:00:00,
2013-05-14 14:12:00,60.8,21.2,30.41,North,359,8.1,-999.9,22,-99.99,,,-99.99,,2013-05-14 18:12:00,
2013-05-14 14:18:00,60.8,21.2,30.41,North,359,8.1,-999.9,22,-99.99,,,-99.99,,2013-05-14 18:18:00,
2013-05-14 14:24:00,60.8,21.2,30.41,NNE,13,2.3,-999.9,22,-99.99,,,-99.99,,2013-05-14 18:24:00,
2013-05-14 14:30:00,60.8,21.2,30.41,NNE,13,2.3,-999.9,22,-99.99,,,-99.99,,2013-05-14 18:30:00,
2013-05-14 14:36:00,60.8,21.2,30.40,ESE,121,4.6,-999.9,22,-99.99,,,-99.99,,2013-05-14 18:36:00,
2013-05-14 14:42:00,62.6,21.2,30.40,NE,56,4.6,-999.9,20,-99.99,,,-99.99,,2013-05-14 18:42:00,
2013-05-14 14:48:00,62.6,21.2,30.40,NE,56,4.6,-999.9,20,-99.99,,,-99.99,,2013-05-14 18:48:00,
2013-05-14 14:54:00,62.6,21.2,30.40,NNW,337,3.5,-999.9,20,-99.99,,,-99.99,,2013-05-14 18:54:00,
2013-05-14 15:00:00,62.6,21.2,30.40,NNW,337,3.5,-999.9,20,-99.99,,,-99.99,,2013-05-14 19:00:00,
2013-05-14 15:06:00,60.8,19.4,30.40,North,5,5.8,-999.9,20,-99.99,,,-99.99,,2013-05-14 19:06:00,
2013-05-14 15:12:00,60.8,21.2,30.40,ENE,68,2.3,-999.9,22,-99.99,,,-99.99,,2013-05-14 19:12:00,
2013-05-14 15:18:00,60.8,21.2,30.40,ENE,68,2.3,-999.9,22,-99.99,,,-99.99,,2013-05-14 19:18:00,
2013-05-14 15:24:00,60.8,21.2,30.40,ESE,115,2.3,-999.9,22,-99.99,,,-99.99,,2013-05-14 19:24:00,
2013-05-14 15:30:00,60.8,21.2,30.40,ESE,115,2.3,-999.9,22,-99.99,,,-99.99,,2013-05-14 19:30:00,
2013-05-14 15:36:00,60.8,19.4,30.40,ENE,69,1.2,-999.9,20,-99.99,,,-99.99,,2013-05-14 19:36:00,
2013-05-14 15:42:00,60.8,19.4,30.39,NE,44,2.3,-999.9,20,-99.99,,,-99.99,,2013-05-14 19:42:00,
2013-05-14 15:48:00,60.8,19.4,30.39,NE,44,2.3,-999.9,20,-99.99,,,-99.99,,2013-05-14 19:48:00,
2013-05-14 15:54:00,60.8,17.6,30.39,NNE,21,4.6,-999.9,19,-99.99,,,-99.99,,2013-05-14 19:54:00,
2013-05-14 16:00:00,60.8,17.6,30.39,NNE,21,4.6,-999.9,19,-99.99,,,-99.99,,2013-05-14 20:00:00,
2013-05-14 16:06:00,60.8,19.4,30.39,SSE,150,3.5,-999.9,20,-99.99,,,-99.99,,2013-05-14 20:06:00,
2013-05-14 16:12:00,60.8,19.4,30.38,NE,53,0.0,-999.9,20,-99.99,,,-99.99,,2013-05-14 20:12:00,
2013-05-14 16:18:00,60.8,19.4,30.38,NE,53,0.0,-999.9,20,-99.99,,,-99.99,,2013-05-14 20:18:00,
2013-05-14 16:24:00,60.8,19.4,30.38,South,185,1.2,-999.9,20,-99.99,,,-99.99,,2013-05-14 20:24:00,
2013-05-14 16:30:00,60.8,19.4,30.38,South,185,1.2,-999.9,20,-99.99,,,-99.99,,2013-05-14 20:30:00,
2013-05-14 16:36:00,60.8,21.2,30.38,ENE,66,1.2,-999.9,22,-99.99,,,-99.99,,2013-05-14 20:36:00,
2013-05-14 16:42:00,60.8,21.2,30.38,SE,137,4.6,-999.9,22,-99.99,,,-99.99,,2013-05-14 20:42:00,
2013-05-14 16:48:00,60.8,21.2,30.38,SE,137,4.6,-999.9,22,-99.99,,,-99.99,,2013-05-14 20:48:00,
2013-05-14 17:02:00,60.8,21.2,30.38,East,91,2.3,-999.9,22,-99.99,,,-99.99,,2013-05-14 21:02:00,
2013-05-14 17:08:00,60.8,21.2,30.38,East,91,2.3,-999.9,22,-99.99,,,-99.99,,2013-05-14 21:08:00,
2013-05-14 17:14:00,60.8,23.0,30.37,SE,145,6.9,-999.9,23,-99.99,,,-99.99,,2013-05-14 21:14:00,
2013-05-14 17:20:00,60.8,23.0,30.37,SE,145,6.9,-999.9,23,-99.99,,,-99.99,,2013-05-14 21:20:00,
2013-05-14 17:26:00,60.8,23.0,30.38,NNE,22,3.5,-999.9,23,-99.99,,,-99.99,,2013-05-14 21:26:00,
2013-05-14 17:32:00,60.8,21.2,30.38,NE,47,0.0,-999.9,22,-99.99,,,-99.99,,2013-05-14 21:32:00,
2013-05-14 17:38:00,60.8,21.2,30.38,NE,47,0.0,-999.9,22,-99.99,,,-99.99,,2013-05-14 21:38:00,
2013-05-14 17:44:00,60.8,21.2,30.38,SSE,164,3.5,-999.9,22,-99.99,,,-99.99,,2013-05-14 21:44:00,
2013-05-14 17:50:00,60.8,21.2,30.38,SSE,164,3.5,-999.9,22,-99.99,,,-99.99,,2013-05-14 21:50:00,
2013-05-14 17:56:00,60.8,21.2,30.38,East,93,0.0,-999.9,22,-99.99,,,-99.99,,2013-05-14 21:56:00,
2013-05-14 18:02:00,60.8,21.2,30.38,NNE,26,2.3,-999.9,22,-99.99,,,-99.99,,2013-05-14 22:02:00,
2013-05-14 18:08:00,60.8,21.2,30.38,NNE,26,2.3,-999.9,22,-99.99,,,-99.99,,2013-05-14 22:08:00,
2013-05-14 18:14:00,59.0,19.4,30.37,SE,137,3.5,-999.9,22,-99.99,,,-99.99,,2013-05-14 22:14:00,
2013-05-14 18:20:00,59.0,19.4,30.37,SE,137,3.5,-999.9,22,-99.99,,,-99.99,,2013-05-14 22:20:00,
2013-05-14 18:26:00,59.0,19.4,30.37,ENE,66,3.5,-999.9,22,-99.99,,,-99.99,,2013-05-14 22:26:00,
2013-05-14 18:32:00,59.0,21.2,30.37,NW,324,0.0,-999.9,23,-99.99,,,-99.99,,2013-05-14 22:32:00,
2013-05-14 18:38:00,59.0,21.2,30.37,NW,324,0.0,-999.9,23,-99.99,,,-99.99,,2013-05-14 22:38:00,
2013-05-14 18:44:00,59.0,23.0,30.37,North,0,0.0,-999.9,25,-99.99,,,-99.99,,2013-05-14 22:44:00,
2013-05-14 18:50:00,59.0,23.0,30.37,North,0,0.0,-999.9,25,-99.99,,,-99.99,,2013-05-14 22:50:00,
2013-05-14 18:56:00,59.0,23.0,30.38,North,0,0.0,-999.9,25,-99.99,,,-99.99,,2013-05-14 22:56:00,
2013-05-14 19:02:00,59.0,21.2,30.38,NNW,341,1.2,-999.9,23,-99.99,,,-99.99,,2013-05-14 23:02:00,
2013-05-14 19:08:00,59.0,21.2,30.38,NNW,341,1.2,-999.9,23,-99.99,,,-99.99,,2013-05-14 23:08:00,
2013-05-14 19:14:00,59.0,24.8,30.38,North,0,0.0,-999.9,27,-99.99,,,-99.99,,2013-05-14 23:14:00,
2013-05-14 19:20:00,59.0,24.8,30.38,North,0,0.0,-999.9,27,-99.99,,,-99.99,,2013-05-14 23:20:00,
2013-05-14 19:26:00,57.2,24.8,30.38,North,0,0.0,-999.9,29,-99.99,,,-99.99,,2013-05-14 23:26:00,
2013-05-14 19:32:00,57.2,26.6,30.38,North,0,0.0,-999.9,31,-99.99,,,-99.99,,2013-05-14 23:32:00,
2013-05-14 19:38:00,57.2,26.6,30.38,North,0,0.0,-999.9,31,-99.99,,,-99.99,,2013-05-14 23:38:00,
2013-05-14 19:44:00,57.2,24.8,30.38,North,0,0.0,-999.9,29,-99.99,,,-99.99,,2013-05-14 23:44:00,
2013-05-14 19:50:00,57.2,24.8,30.38,North,0,0.0,-999.9,29,-99.99,,,-99.99,,2013-05-14 23:50:00,
2013-05-14 19:56:00,55.4,24.8,30.37,North,0,0.0,-999.9,31,-99.99,,,-99.99,,2013-05-14 23:56:00,
2013-05-14 20:12:00,55.4,24.8,30.38,North,0,0.0,-999.9,31,-99.99,,,-99.99,,2013-05-15 00:12:00,
2013-05-14 20:18:00,55.4,24.8,30.38,North,0,0.0,-999.9,31,-99.99,,,-99.99,,2013-05-15 00:18:00,
2013-05-14 21:12:00,50.0,33.8,30.40,North,0,0.0,-999.9,54,-99.99,,,-99.99,,2013-05-15 01:12:00,
2013-05-14 21:18:00,50.0,33.8,30.40,North,0,0.0,-999.9,54,-99.99,,,-99.99,,2013-05-15 01:18:00,
2013-05-14 21:24:00,48.2,32.0,30.40,North,0,0.0,-999.9,54,-99.99,,,-99.99,,2013-05-15 01:24:00,
2013-05-14 21:30:00,48.2,32.0,30.40,North,0,0.0,-999.9,54,-99.99,,,-99.99,,2013-05-15 01:30:00,
2013-05-14 21:36:00,48.2,33.8,30.41,North,0,0.0,-999.9,58,-99.99,,,-99.99,,2013-05-15 01:36:00,
2013-05-14 21:42:00,48.2,35.6,30.41,North,0,0.0,-999.9,62,-99.99,,,-99.99,,2013-05-15 01:42:00,
2013-05-14 21:48:00,48.2,35.6,30.41,North,0,0.0,-999.9,62,-99.99,,,-99.99,,2013-05-15 01:48:00,
2013-05-14 21:54:00,46.4,33.8,30.42,North,0,0.0,-999.9,62,-99.99,,,-99.99,,2013-05-15 01:54:00,
2013-05-14 22:00:00,46.4,33.8,30.42,North,0,0.0,-999.9,62,-99.99,,,-99.99,,2013-05-15 02:00:00,
2013-05-14 22:06:00,46.4,35.6,30.42,North,0,0.0,-999.9,66,-99.99,,,-99.99,,2013-05-15 02:06:00,
2013-05-14 22:12:00,46.4,35.6,30.42,North,0,0.0,-999.9,66,-99.99,,,-99.99,,2013-05-15 02:12:00,
2013-05-14 22:18:00,46.4,35.6,30.42,North,0,0.0,-999.9,66,-99.99,,,-99.99,,2013-05-15 02:18:00,
2013-05-14 22:24:00,44.6,33.8,30.42,North,0,0.0,-999.9,66,-99.99,,,-99.99,,2013-05-15 02:24:00,
2013-05-14 22:30:00,44.6,33.8,30.42,North,0,0.0,-999.9,66,-99.99,,,-99.99,,2013-05-15 02:30:00,
2013-05-14 22:36:00,44.6,35.6,30.43,North,0,0.0,-999.9,71,-99.99,,,-99.99,,2013-05-15 02:36:00,
2013-05-14 22:42:00,44.6,35.6,30.43,North,0,0.0,-999.9,71,-99.99,,,-99.99,,2013-05-15 02:42:00,
2013-05-14 22:48:00,44.6,35.6,30.43,North,0,0.0,-999.9,71,-99.99,,,-99.99,,2013-05-15 02:48:00,
2013-05-14 22:54:00,44.6,35.6,30.43,North,0,0.0,-999.9,71,-99.99,,,-99.99,,2013-05-15 02:54:00,
2013-05-14 23:00:00,44.6,35.6,30.43,North,0,0.0,-999.9,71,-99.99,,,-99.99,,2013-05-15 03:00:00,
2013-05-14 23:12:00,42.8,35.6,30.43,North,353,1.2,-999.9,76,-99.99,,,-99.99,,2013-05-15 03:12:00,
2013-05-14 23:18:00,42.8,35.6,30.43,North,353,1.2,-999.9,76,-99.99,,,-99.99,,2013-05-15 03:18:00,
2013-05-14 23:24:00,42.8,35.6,30.43,North,0,0.0,-999.9,76,-99.99,,,-99.99,,2013-05-15 03:24:00,
2013-05-14 23:30:00,42.8,35.6,30.43,North,0,0.0,-999.9,76,-99.99,,,-99.99,,2013-05-15 03:30:00,
2013-05-14 23:36:00,42.8,35.6,30.43,North,0,0.0,-999.9,76,-99.99,,,-99.99,,2013-05-15 03:36:00,
2013-05-14 23:42:00,42.8,35.6,30.43,North,0,0.0,-999.9,76,-99.99,,,-99.99,,2013-05-15 03:42:00,
2013-05-14 23:48:00,42.8,35.6,30.43,North,0,0.0,-999.9,76,-99.99,,,-99.99,,2013-05-15 03:48:00,
2013-05-14 23:54:00,42.8,37.4,30.43,North,0,0.0,-999.9,81,-99.99,,,-99.99,,2013-05-15 03:54:00,